Location: Newark
(33.6333°S, 78.8500°W)
Time: 23:43:06
(UTC+00:00)

Tiros 1 despin weight - Pass Details

Date: 25 September 2019
Orbit: 594 x 643 km, 48.2° (Epoch: 15 October)

Event Time Altitude Azimuth Distance (km) Brightness Sun altitude
Rises 04:38:39 0° 270° (W) 2,872 - -55.0°
Reaches altitude 10° 04:41:21 10° 254° (WSW) 1,981 - -55.1°
Maximum altitude 04:44:58 22° 202° (SSW) 1,355 - -55.2°
Drops below altitude 10° 04:48:37 10° 150° (SSE) 2,015 - -55.4°
Sets 04:51:24 0° 134° (SE) 2,935 - -55.4°
